DW8097 Weather Reports


time (UTC)temp
F
wind
direction
speed
knots
gust
knots
rain 1hr
in
rain 24hr
in
rain mn
in
humidity
%
barometer
mb
20260503003030 63 254 1.7 4.3 0.00 0.00 0.00 34 1010.2
20260503001528 63 273 1.7 4.3 0.00 0.00 0.00 33 1010.4
20260503000031 63 248 1.7 5.2 0.00 0.00 0.00 34 1010.4
20260502234520 63 284 1.7 6.1 0.00 0.00 0.00 33 1010.5
20260502233018 63 258 2.6 6.1 0.00 0.00 0.00 32 1010.7
20260502231519 63 298 3.5 7.0 0.00 0.00 0.00 30 1010.8
20260502230011 64 275 3.5 7.0 0.00 0.00 0.00 30 1011.1
20260502224539 64 255 1.7 7.0 0.00 0.00 0.00 30 1011.3
20260502223037 64 259 4.3 13.0 0.00 0.00 0.00 30 1011.5
20260502221535 65 331 1.7 7.0 0.00 0.00 0.00 30 1011.7
20260502220034 65 292 5.2 12.2 0.00 0.00 0.00 29 1011.9
20260502214528 66 305 2.6 9.6 0.00 0.00 0.00 29 1012.0
20260502213025 65 313 5.2 10.4 0.00 0.00 0.00 28 1012.2
20260502211522 65 331 4.3 10.4 0.00 0.00 0.00 28 1012.5
20260502210018 64 264 2.6 11.3 0.00 0.00 0.00 30 1012.8
20260502204519 65 267 4.3 13.9 0.00 0.00 0.00 28 1012.9
20260502204517 65 300 4.3 13.9 0.00 0.00 0.00 28 1012.9
20260502203012 64 263 6.1 10.4 0.00 0.00 0.00 28 1013.1
20260502201508 65 297 6.1 11.3 0.00 0.00 0.00 27 1013.4
20260502200101 64 250 5.2 9.6 0.00 0.00 0.00 28 1013.7
20260502194616 62 317 4.3 10.4 0.00 0.00 0.00 29 1014.0
20260502193105 64 258 4.3 12.2 0.00 0.00 0.00 30 1014.3
20260502191559 63 309 4.3 7.0 0.00 0.00 0.00 27 1014.5
20260502190022 63 285 3.5 19.1 0.00 0.00 0.00 28 1014.8
20260502184512 62 268 4.3 9.6 0.00 0.00 0.00 29 1015.0
20260502183007 62 329 6.1 8.7 0.00 0.00 0.00 28 1015.3
20260502181507 61 297 6.1 11.3 0.00 0.00 0.00 29 1015.5
20260502163037 59 355 6.1 10.4 0.00 0.00 0.00 30 1016.8
20260502161527 58 275 7.0 11.3 0.00 0.00 0.00 32 1017.1
20260502151515 55 326 4.3 11.3 0.00 0.00 0.00 36 1017.4
20260502123002 44 216 0.0 0.9 0.00 0.00 0.00 65 1018.2
20260502121502 40 216 0.0 0.9 0.00 0.00 0.00 68 1018.1
20260502114601 37 216 0.0 1.7 0.00 0.00 0.00 72 1017.9
20260502113058 35 216 0.0 1.7 0.00 0.00 0.00 76 1017.9
20260502111657 35 216 0.0 0.9 0.00 0.00 0.00 76 1017.9
20260502110056 34 216 0.0 1.7 0.00 0.00 0.00 76 1017.8
20260502104556 35 216 0.0 0.9 0.00 0.00 0.00 76 1017.8
20260502103053 34 216 0.0 1.7 0.00 0.00 0.00 74 1017.8
20260502101559 35 216 0.0 0.9 0.00 0.00 0.00 76 1017.8
20260502091517 36 216 0.0 1.7 0.00 0.00 0.00 72 1018.1
20260502071532 39 249 0.0 1.7 0.00 0.00 0.00 68 1017.9
20260502070031 38 251 0.9 1.7 0.00 0.00 0.00 70 1018.1
20260502064534 37 211 0.0 1.7 0.00 0.00 0.00 67 1018.2
20260502063027 40 211 0.0 1.7 0.00 0.00 0.00 65 1018.2
20260502061522 41 211 0.0 0.9 0.00 0.00 0.00 62 1018.2
20260502060022 41 211 0.0 0.9 0.00 0.00 0.00 64 1018.2
20260502054523 41 211 0.0 0.9 0.00 0.00 0.00 61 1018.2
20260502053021 40 211 0.0 0.9 0.00 0.00 0.00 63 1018.3
20260502051523 42 211 0.0 0.9 0.00 0.00 0.00 60 1018.1
20260502050118 43 211 0.0 0.0 0.00 0.00 0.00 58 1018.1
20260502044516 42 211 0.0 0.0 0.00 0.00 0.00 60 1018.0
20260502043016 41 211 0.0 1.7 0.00 0.00 0.00 64 1018.0
20260502041523 40 211 0.0 0.9 0.00 0.00 0.00 62 1018.0
20260502040013 42 211 0.0 0.9 0.00 0.00 0.00 61 1018.1
20260502034514 41 211 0.0 1.7 0.00 0.00 0.00 64 1018.1
20260502033017 42 211 0.0 0.9 0.00 0.00 0.00 60 1018.1
20260502031507 42 211 0.0 0.9 0.00 0.00 0.00 61 1018.1
20260502030013 43 211 0.0 0.9 0.00 0.00 0.00 56 1018.1
20260502024502 43 211 0.0 1.7 0.00 0.00 0.00 56 1018.0
20260502023058 44 211 0.0 1.7 0.00 0.00 0.00 54 1018.0
20260502021552 46 211 0.9 1.7 0.00 0.00 0.00 52 1017.8
20260502020044 47 211 0.9 1.7 0.00 0.00 0.00 48 1017.8
20260502014540 47 306 0.0 0.9 0.00 0.00 0.00 48 1017.6
20260502013036 49 306 0.0 1.7 0.00 0.00 0.00 39 1017.5
20260502011531 51 312 0.0 1.7 0.00 0.00 0.00 37 1017.4
20260502010038 50 323 2.6 6.1 0.00 0.00 0.00 34 1017.3
20260502004547 51 343 1.7 7.0 0.00 0.00 0.00 32 1017.2